ELFIN-B (43616 NORAD) Tracking and Keplerian Element Data

This shows tracking and keplerian element data for the satellite.

Feedback or suggestion? Click here.




ElementValue
Catalog43616
NameELFIN-B
Epoch Orbit941
Epoch Day319.87341906
Epoch Year2018
RAAN274.8271
Inclination93.0282
Eccentricity0.0021445
Argument of Perigee56.4958
Mean Anonmoly303.8512
Mean Motion15.3663228
Decay Rate-6E-08
L11 43616U 18070D 18319.87341906 -.00000006 00000-0 00000+0 0 9992
L22 43616 93.0282 274.8271 0021445 56.4958 303.8512 15.36632280 9412

Live tracking and technical data element details for ELFIN-B (NORAD 43616). ELFIN-B can be tracked NOW for your location showing map with azimuth and elevation plus other details from your city location.

Track the satellite on the map from your city or location and see movement details for azimuth, elevation, latitude, longitude, range, height, and movement on the map or in text.







IsCatalogInMostPopularTable: catalog: 43616, numindb: 16
Update: records affected: 1



GetName: 43616 ELFIN-B

Hit Count: updated at: Sat, 17 Nov 2018 02:35:40 GMT